Weather History for KFRG - January, 2013

Change the Weather History Date:

Friday, January 25, 2013

  Actual Average Record
Temperature  
Mean Temperature 18 °F -  
Max Temperature 24 °F 34 °F 50 °F (1997)
Min Temperature 12 °F 21 °F 7 °F (2004)
Degree Days  
Heating Degree Days 47    
Moisture  
Dew Point 10 °F    
Average Humidity 72    
Maximum Humidity 93    
Minimum Humidity 39    
Precipitation  
Precipitation 0.04 in - - ()
Sea Level Pressure  
Sea Level Pressure 30.21 in    
Wind  
Wind Speed 6 mph (WNW)    
Max Wind Speed 12 mph    
Max Gust Speed -    
Visibility 6 miles    
Events Snow    
Averages and records for this station are not official NWS values.
T = Trace of Precipitation, MM = Missing Value Source: NWS Daily Summary

Daily Weather History Graph

Daily Weather History Graph

Search for Another Location

Airport or City:

Trip Planner

Search our weather history database for the weather conditions in past years. The results will help you decide how hot, cold, wet, or windy it might be!

Date:

Astronomy

Jan. 25, 2013 Rise Set
Actual Time 7:09 AM EST 5:03 PM EST
Civil Twilight 6:40 AM EST 5:32 PM EST
Nautical Twilight 6:06 AM EST 6:05 PM EST
Astronomical Twilight 5:34 AM EST 6:38 PM EST
Moon 3:57 PM EST (1/25) 5:47 AM EST (1/25)
Length of Visible Light 10h 52m
Length of Day
9h 53m
Waxing Gibbous, 98% of the Moon is Illuminated
Jan 25
Waxing Gibbous
Jan 26
Full
Feb 3
Last Quarter
Feb 10
New
Feb 17
First Quarter

Hourly Weather History & Observations

Time (EST) Temp. Windchill Dew Point Humidity Pressure Visibility Wind Dir Wind Speed Gust Speed Precip Events Conditions
12:53 AM 15.1 °F 3.3 °F -2.0 °F 47% 30.38 in 10.0 mi NW 9.2 mph - N/A   Clear
1:53 AM 14.0 °F 0.5 °F -2.0 °F 49% 30.40 in 10.0 mi WNW 11.5 mph - N/A   Clear
2:53 AM 14.0 °F 3.9 °F -0.9 °F 52% 30.40 in 10.0 mi NW 6.9 mph - N/A   Clear
3:53 AM 14.0 °F 3.9 °F -0.0 °F 54% 30.40 in 10.0 mi WNW 6.9 mph - N/A   Clear
4:53 AM 12.9 °F 3.8 °F -0.0 °F 56% 30.40 in 10.0 mi WNW 5.8 mph - N/A   Clear
5:53 AM 12.9 °F 2.6 °F -0.0 °F 56% 30.40 in 10.0 mi WNW 6.9 mph - N/A   Clear
6:53 AM 12.9 °F 2.6 °F 1.0 °F 59% 30.41 in 10.0 mi West 6.9 mph - N/A   Clear
7:53 AM 14.0 °F 3.9 °F 1.9 °F 59% 30.40 in 10.0 mi WNW 6.9 mph - N/A   Clear
8:53 AM 16.0 °F 6.3 °F 3.0 °F 57% 30.40 in 10.0 mi NW 6.9 mph - N/A   Clear
9:53 AM 18.0 °F 8.7 °F 3.0 °F 52% 30.40 in 10.0 mi NW 6.9 mph - N/A   Clear
10:53 AM 19.9 °F 13.4 °F 1.9 °F 46% 30.39 in 10.0 mi WNW 4.6 mph - N/A   Clear
11:53 AM 21.0 °F - 1.9 °F 44% 30.34 in 10.0 mi Calm Calm - N/A   Clear
12:53 PM 23.0 °F - 1.0 °F 39% 30.30 in 10.0 mi Calm Calm - N/A   Clear
1:53 PM 23.0 °F - 1.0 °F 39% 30.25 in 10.0 mi Calm Calm - N/A   Clear
2:53 PM 24.1 °F 16.0 °F 3.9 °F 42% 30.24 in 10.0 mi SSW 6.9 mph - N/A   Mostly Cloudy
3:53 PM 21.9 °F 13.4 °F 3.9 °F 46% 30.22 in 10.0 mi SSW 6.9 mph - N/A   Mostly Cloudy
4:53 PM 21.9 °F 12.5 °F 9.0 °F 58% 30.21 in 10.0 mi SW 8.1 mph - N/A   Overcast
5:29 PM 21.2 °F 11.7 °F 10.4 °F 63% 30.18 in 2.0 mi SW 8.1 mph - 0.00 in Snow Light Snow
5:40 PM 21.2 °F 12.6 °F 14.0 °F 74% 30.18 in 1.8 mi WSW 6.9 mph - 0.00 in Snow Light Snow
5:53 PM 21.0 °F 12.4 °F 15.1 °F 78% 30.18 in 1.2 mi West 6.9 mph - 0.00 in Snow Light Snow
6:17 PM 19.4 °F - 17.6 °F 93% 30.14 in 1.0 mi Calm Calm - 0.00 in Snow Light Snow
6:27 PM 19.4 °F - 17.6 °F 93% 30.14 in 0.8 mi Calm Calm - 0.01 in Snow Light Snow
6:40 PM 19.4 °F 14.3 °F 17.6 °F 93% 30.13 in 1.2 mi WNW 3.5 mph - 0.01 in Snow Light Snow
6:53 PM 19.9 °F - 17.1 °F 89% 30.14 in 1.8 mi Calm Calm - 0.02 in Snow Light Snow
7:00 PM 19.4 °F 14.3 °F 17.6 °F 93% 30.13 in 2.0 mi NNW 3.5 mph - 0.00 in Snow Light Snow
7:14 PM 19.4 °F 14.3 °F 17.6 °F 93% 30.12 in 2.5 mi NNW 3.5 mph - 0.00 in Snow Light Snow
7:21 PM 21.2 °F 16.4 °F 17.6 °F 86% 30.12 in 1.8 mi NNW 3.5 mph - 0.00 in Snow Light Snow
7:53 PM 19.9 °F - 17.1 °F 89% 30.12 in 1.2 mi Calm Calm - 0.00 in Snow Light Snow
8:45 PM 19.4 °F 14.3 °F 17.6 °F 93% 30.10 in 1.0 mi NW 3.5 mph - 0.02 in Snow Light Snow
8:53 PM 19.9 °F - 17.1 °F 89% 30.11 in 1.5 mi Calm Calm - 0.02 in Snow Light Snow
9:02 PM 19.4 °F 14.3 °F 17.6 °F 93% 30.10 in 3.0 mi NW 3.5 mph - 0.00 in Snow Light Snow
9:13 PM 19.4 °F - 17.6 °F 93% 30.10 in 1.8 mi Calm Calm - 0.00 in Snow Light Snow
9:50 PM 19.4 °F 10.4 °F 17.6 °F 93% 30.08 in 2.0 mi West 6.9 mph - 0.00 in Snow Light Snow
9:53 PM 19.9 °F 11.1 °F 17.1 °F 89% 30.08 in 2.0 mi West 6.9 mph - 0.00 in Snow Light Snow
10:02 PM 19.4 °F 9.5 °F 17.6 °F 93% 30.08 in 2.0 mi WSW 8.1 mph - 0.00 in Snow Light Snow
10:13 PM 19.4 °F 11.5 °F 17.6 °F 93% 30.07 in 4.0 mi West 5.8 mph - 0.00 in Snow Light Snow
10:28 PM 19.4 °F 11.5 °F 17.6 °F 93% 30.07 in 7.0 mi West 5.8 mph - 0.00 in Snow Light Snow
10:40 PM 19.4 °F 11.5 °F 15.8 °F 86% 30.07 in 9.0 mi West 5.8 mph - 0.00 in Snow Light Snow
10:53 PM 19.0 °F 13.9 °F 15.1 °F 85% 30.07 in 9.0 mi WNW 3.5 mph - 0.00 in Snow Light Snow
11:53 PM 18.0 °F 12.7 °F 14.0 °F 84% 30.07 in 8.0 mi NW 3.5 mph - 0.00 in Snow Light Snow